Date String (YYYY-MM-DD hh:mm:ss) UTC,Instrument flags,Ambient pressure (hPa),Sample flow (lpm),Bypass flow (lpm),Sample temperature (°C),Ambient temperature (°C),ASC tube jacket temperature (°C),LED temperature (°C),Box temperature (°C),Sample RH (%),Span deviation,Mass concentration (μg/m³),Mass concentration (μg/m³),Mass concentration (μg/m³)
DateTimeUTC,F1_M11,P_M11,Q1_M11,Q2_M11,T1_M11,T2_M11,T3_M11,T4_M11,T5_M11,U1_M11,ZSPAN_M11,X0_M11,X2_M11,X1_M11
2022-02-12 18:00:00,,0832.3,5.00,0.00,23.4,22.6,00.0,32.3,25.1,06.6,0000.0,0002.03,0001.38,0001.24
2022-02-12 18:01:00,,0832.3,4.99,0.00,23.4,22.6,00.0,32.3,25.2,06.8,0000.0,0002.03,0001.36,0001.21
2022-02-12 18:02:00,,0832.3,5.00,0.00,23.4,22.6,00.0,32.3,25.2,06.7,0000.0,0001.88,0001.31,0001.18
2022-02-12 18:03:00,,0832.3,5.01,0.00,23.4,22.6,00.0,32.3,25.2,06.6,0000.0,0001.87,0001.31,0001.17
2022-02-12 18:04:00,,0832.2,4.98,0.00,23.4,22.6,00.0,32.3,25.1,06.5,0000.0,0001.85,0001.30,0001.17
2022-02-12 18:05:00,,0832.3,5.01,0.00,23.4,22.6,00.0,32.3,25.2,06.6,0000.0,0001.89,0001.31,0001.15
2022-02-12 18:06:00,,0832.2,4.98,0.00,23.4,22.6,00.0,32.3,25.2,06.8,0000.0,0001.90,0001.31,0001.15
2022-02-12 18:07:00,,0832.3,5.03,0.00,23.4,22.6,00.0,32.3,25.2,06.7,0000.0,0001.96,0001.32,0001.14
2022-02-12 18:08:00,,0832.3,4.98,0.00,23.4,22.6,00.0,32.3,25.2,07.1,0000.0,0002.02,0001.35,0001.15
2022-02-12 18:09:00,,0832.2,5.02,0.00,23.4,22.6,00.0,32.3,25.1,06.6,0000.0,0002.10,0001.38,0001.15
2022-02-12 18:10:00,,0832.3,4.98,0.00,23.4,22.6,00.0,32.3,25.2,06.5,0000.0,0001.88,0001.34,0001.14
2022-02-12 18:11:00,,0832.2,5.01,0.00,23.4,22.6,00.0,32.3,25.2,06.5,0000.0,0001.86,0001.34,0001.13
2022-02-12 18:12:00,,0832.3,5.00,0.00,23.4,22.6,00.0,32.3,25.2,06.8,0000.0,0001.97,0001.36,0001.13
2022-02-12 18:13:00,,0832.3,5.01,0.00,23.4,22.6,00.0,32.3,25.2,07.0,0000.0,0001.99,0001.36,0001.13
2022-02-12 18:14:00,,0832.3,5.00,0.00,23.4,22.6,00.0,32.3,25.2,06.7,0000.0,0001.94,0001.34,0001.12
2022-02-12 18:15:00,,0832.2,5.01,0.00,23.4,22.6,00.0,32.3,25.2,06.7,0000.0,0001.98,0001.34,0001.11
2022-02-12 18:16:00,,0832.2,5.00,0.00,23.4,22.6,00.0,32.3,25.2,06.6,0000.0,0002.31,0001.33,0001.12
2022-02-12 18:17:00,,0832.1,4.99,0.00,23.4,22.6,00.0,32.3,25.2,06.8,0000.0,0003.42,0001.35,0001.12
2022-02-12 18:18:00,,0832.1,5.00,0.00,23.4,22.6,00.0,32.3,25.2,07.0,0000.0,0003.46,0001.37,0001.13
2022-02-12 18:19:00,,0832.1,5.00,0.00,23.4,22.6,00.0,32.3,25.2,06.9,0000.0,0003.50,0001.41,0001.16
2022-02-12 18:20:00,,0832.1,5.00,0.00,23.4,22.6,00.0,32.3,25.2,06.9,0000.0,0003.75,0001.44,0001.19
2022-02-12 18:21:00,,0832.0,5.00,0.00,23.4,22.6,00.0,32.3,25.2,06.9,0000.0,0003.96,0001.51,0001.24
2022-02-12 18:22:00,,0832.0,5.01,0.00,23.4,22.6,00.0,32.3,25.2,06.9,0000.0,0004.01,0001.55,0001.29
2022-02-12 18:23:00,,0832.0,5.00,0.00,23.4,22.6,00.0,32.3,25.2,06.9,0000.0,0003.98,0001.60,0001.35
2022-02-12 18:24:00,,0832.1,5.01,0.00,23.4,22.6,00.0,32.3,25.2,06.7,0000.0,0003.99,0001.63,0001.37
2022-02-12 18:25:00,,0832.0,4.99,0.00,23.4,22.6,00.0,32.3,25.2,07.1,0000.0,0004.05,0001.67,0001.41
2022-02-12 18:26:00,,0832.0,5.01,0.00,23.4,22.6,00.0,32.3,25.2,07.3,0000.0,0004.13,0001.73,0001.48
2022-02-12 18:27:00,,0831.9,4.98,0.00,23.4,22.6,00.0,32.3,25.2,07.1,0000.0,0003.83,0001.78,0001.53
2022-02-12 18:28:00,,0831.8,5.01,0.00,23.4,22.7,00.0,32.3,25.2,06.9,0000.0,0002.74,0001.78,0001.56
2022-02-12 18:29:00,,0831.7,5.00,0.00,23.4,22.7,00.0,32.3,25.2,07.2,0000.0,0002.71,0001.79,0001.58
2022-02-12 18:30:00,,0831.7,5.00,0.00,23.4,22.7,00.0,32.3,25.2,07.1,0000.0,0002.77,0001.80,0001.58
2022-02-12 18:31:00,,0831.7,5.00,0.00,23.5,22.7,00.0,32.3,25.2,07.4,0000.0,0002.53,0001.78,0001.57
2022-02-12 18:32:00,,0831.7,5.00,0.00,23.5,22.7,00.0,32.3,25.2,07.4,0000.0,0002.38,0001.77,0001.56
2022-02-12 18:33:00,,0831.7,4.99,0.00,23.5,22.7,00.0,32.3,25.2,07.5,0000.0,0002.43,0001.78,0001.56
2022-02-12 18:34:00,,0831.7,5.00,0.00,23.5,22.7,00.0,32.3,25.2,07.6,0000.0,0002.36,0001.75,0001.56
2022-02-12 18:35:00,,0831.7,4.99,0.00,23.5,22.7,00.0,32.4,25.2,07.9,0000.0,0002.39,0001.78,0001.58
2022-02-12 18:36:00,,0831.6,5.02,0.00,23.5,22.7,00.0,32.4,25.3,07.5,0000.0,0002.83,0001.77,0001.58
2022-02-12 18:37:00,,0831.7,4.99,0.00,23.5,22.7,00.0,32.4,25.3,07.2,0000.0,0003.31,0001.71,0001.52
2022-02-12 18:38:00,,0831.6,5.02,0.00,23.5,22.7,00.0,32.4,25.2,07.8,0000.0,0003.21,0001.67,0001.49
2022-02-12 18:39:00,,0831.6,4.99,0.00,23.5,22.7,00.0,32.4,25.3,07.4,0000.0,0004.08,0001.65,0001.46
2022-02-12 18:40:00,,0831.6,5.00,0.00,23.5,22.7,00.0,32.4,25.3,07.6,0000.0,0004.26,0001.64,0001.43
2022-02-12 18:41:00,,0831.6,5.01,0.00,23.5,22.7,00.0,32.4,25.3,07.2,0000.0,0005.11,0001.57,0001.41
2022-02-12 18:42:00,,0831.6,4.99,0.00,23.5,22.7,00.0,32.4,25.3,07.4,0000.0,0005.01,0001.51,0001.37
2022-02-12 18:43:00,,0831.6,5.02,0.00,23.5,22.7,00.0,32.4,25.3,07.5,0000.0,0004.95,0001.47,0001.34
2022-02-12 18:44:00,,0831.6,4.99,0.00,23.5,22.7,00.0,32.4,25.3,07.7,0000.0,0004.87,0001.43,0001.31
2022-02-12 18:45:00,,0831.6,5.02,0.00,23.5,22.8,00.0,32.4,25.3,07.8,0000.0,0004.90,0001.42,0001.28
2022-02-12 18:46:00,,0831.6,4.99,0.00,23.5,22.8,00.0,32.4,25.3,07.7,0000.0,0004.92,0001.40,0001.24
2022-02-12 18:47:00,,0831.6,5.00,0.00,23.5,22.8,00.0,32.4,25.3,07.8,0000.0,0004.47,0001.40,0001.22
2022-02-12 18:48:00,,0831.6,5.01,0.00,23.5,22.8,00.0,32.4,25.4,07.9,0000.0,0003.99,0001.43,0001.23
2022-02-12 18:49:00,,0831.6,4.99,0.00,23.6,22.8,00.0,32.4,25.4,08.0,0000.0,0004.13,0001.49,0001.23
2022-02-12 18:50:00,,0831.6,5.01,0.00,23.6,22.8,00.0,32.4,25.4,08.0,0000.0,0003.42,0001.53,0001.24
2022-02-12 18:51:00,,0831.5,5.00,0.00,23.6,22.8,00.0,32.4,25.4,07.6,0000.0,0003.28,0001.52,0001.24
2022-02-12 18:52:00,,0831.6,4.99,0.00,23.6,22.8,00.0,32.4,25.4,07.8,0000.0,0002.25,0001.52,0001.25
2022-02-12 18:53:00,,0831.6,5.01,0.00,23.6,22.8,00.0,32.5,25.4,07.9,0000.0,0002.39,0001.57,0001.27
2022-02-12 18:54:00,,0831.5,5.01,0.00,23.6,22.8,00.0,32.5,25.3,08.2,0000.0,0002.50,0001.63,0001.30
2022-02-12 18:55:00,,0831.6,4.98,0.00,23.6,22.8,00.0,32.5,25.4,08.1,0000.0,0002.53,0001.66,0001.32
2022-02-12 18:56:00,,0831.5,5.01,0.00,23.6,22.8,00.0,32.5,25.4,08.0,0000.0,0002.58,0001.68,0001.33
2022-02-12 18:57:00,,0831.5,4.99,0.00,23.6,22.8,00.0,32.5,25.4,07.8,0000.0,0002.73,0001.66,0001.31
2022-02-12 18:58:00,,0831.4,5.01,0.00,23.6,22.8,00.0,32.5,25.4,07.9,0000.0,0002.70,0001.64,0001.30
2022-02-12 18:59:00,,0831.4,4.99,0.00,23.6,22.8,00.0,32.5,25.4,07.2,0000.0,0002.68,0001.62,0001.28
